Location: Condor
(52.3263°N, 114.5541°W)
Time: 22:53:07
(UTC+00:00)

Oscar 19 - Pass Details

Date: 07 December 2023
Orbit: 771 x 789 km, 98.9° (Epoch: 04 March)

Event Time Altitude Azimuth Distance (km) Brightness Sun altitude
Rises 12:33:56 0° 16° (NNE) 3,275 14.0 -26.1°
Reaches altitude 10° 12:36:15 10° 17° (NNE) 2,345 13.2 -25.7°
Maximum altitude 12:41:26 81° 105° (ESE) 799 10.6 -25.0°
Drops below altitude 10° 12:46:37 10° 194° (SSW) 2,340 13.0 -24.2°
Sets 12:48:56 0° 195° (SSW) 3,266 13.8 -23.8°
